TimeEDT,TemperatureF,Dew PointF,Humidity,Sea Level PressureIn,VisibilityMPH,Wind Direction,Wind SpeedMPH,Gust SpeedMPH,PrecipitationIn,Events,Conditions,WindDirDegrees,DateUTC
12:15 AM,55.4,55.4,100,29.88,0.2,Calm,Calm,-,N/A,,Overcast,0,2012-10-06 04:15:00
12:35 AM,55.4,53.6,94,29.87,0.2,SSE,4.6,-,N/A,,Overcast,150,2012-10-06 04:35:00
12:55 AM,55.4,55.4,100,29.87,2.0,South,3.5,-,N/A,,Overcast,170,2012-10-06 04:55:00
1:15 AM,55.4,55.4,100,29.87,1.0,Calm,Calm,-,N/A,,Overcast,0,2012-10-06 05:15:00
1:35 AM,55.4,55.4,100,29.87,3.0,South,3.5,-,N/A,,Overcast,190,2012-10-06 05:35:00
2:15 AM,57.2,55.4,94,29.85,7.0,Calm,Calm,-,N/A,,Overcast,0,2012-10-06 06:15:00
2:35 AM,57.2,55.4,94,29.84,5.0,Calm,Calm,-,N/A,,Mostly Cloudy,0,2012-10-06 06:35:00
2:55 AM,57.2,55.4,94,29.84,4.0,Calm,Calm,-,N/A,,Overcast,0,2012-10-06 06:55:00
3:15 AM,55.4,55.4,100,29.84,3.0,Calm,Calm,-,N/A,,Overcast,0,2012-10-06 07:15:00
3:35 AM,55.4,55.4,100,29.83,3.0,Calm,Calm,-,N/A,,Overcast,0,2012-10-06 07:35:00
3:55 AM,57.2,55.4,94,29.83,5.0,Calm,Calm,-,N/A,,Overcast,0,2012-10-06 07:55:00
4:15 AM,55.4,55.4,100,29.83,3.0,Calm,Calm,-,N/A,,Overcast,0,2012-10-06 08:15:00
4:35 AM,57.2,55.4,94,29.82,4.0,SSE,5.8,-,N/A,,Overcast,150,2012-10-06 08:35:00
4:55 AM,57.2,55.4,94,29.82,9.0,SSE,4.6,-,N/A,,Overcast,160,2012-10-06 08:55:00
5:35 AM,57.2,55.4,94,29.82,10.0,SSE,6.9,-,N/A,,Overcast,150,2012-10-06 09:35:00
5:55 AM,57.2,55.4,94,29.82,10.0,South,3.5,-,N/A,,Overcast,180,2012-10-06 09:55:00
6:15 AM,57.2,55.4,94,29.81,9.0,South,4.6,-,N/A,,Scattered Clouds,170,2012-10-06 10:15:00
6:35 AM,57.2,55.4,94,29.80,7.0,SSE,6.9,-,N/A,,Clear,160,2012-10-06 10:35:00
6:55 AM,55.4,53.6,94,29.80,6.0,Calm,Calm,-,N/A,,Clear,0,2012-10-06 10:55:00
7:15 AM,55.4,53.6,94,29.80,5.0,South,3.5,-,N/A,,Clear,170,2012-10-06 11:15:00
7:35 AM,57.2,53.6,88,29.80,5.0,SSE,5.8,-,N/A,,Clear,160,2012-10-06 11:35:00
7:55 AM,57.2,55.4,94,29.79,6.0,SSE,4.6,-,N/A,,Clear,160,2012-10-06 11:55:00
8:15 AM,57.2,55.4,94,29.79,9.0,SSE,3.5,-,N/A,,Clear,160,2012-10-06 12:15:00
8:35 AM,59.0,55.4,88,29.79,10.0,SSE,5.8,-,N/A,,Clear,160,2012-10-06 12:35:00
8:55 AM,60.8,57.2,88,29.79,10.0,SSE,6.9,-,N/A,,Clear,150,2012-10-06 12:55:00
9:15 AM,62.6,57.2,82,29.78,10.0,SSE,3.5,-,N/A,,Clear,160,2012-10-06 13:15:00
9:35 AM,62.6,57.2,82,29.78,10.0,South,6.9,-,N/A,,Clear,180,2012-10-06 13:35:00
9:55 AM,64.4,57.2,77,29.78,10.0,South,10.4,-,N/A,,Clear,180,2012-10-06 13:55:00
10:15 AM,66.2,59.0,78,29.78,10.0,SSW,11.5,-,N/A,,Clear,200,2012-10-06 14:15:00
10:35 AM,68.0,59.0,73,29.77,10.0,South,9.2,-,N/A,,Clear,170,2012-10-06 14:35:00
10:55 AM,68.0,59.0,73,29.77,10.0,South,15.0,-,N/A,,Clear,190,2012-10-06 14:55:00
11:15 AM,69.8,57.2,64,29.75,10.0,South,8.1,-,N/A,,Clear,190,2012-10-06 15:15:00
11:35 AM,69.8,59.0,68,29.74,10.0,South,9.2,-,N/A,,Clear,170,2012-10-06 15:35:00
11:55 AM,71.6,57.2,60,29.73,10.0,South,12.7,21.9,N/A,,Clear,180,2012-10-06 15:55:00
12:15 PM,-9999,-9999,N/A,29.71,10.0,SSW,13.8,18.4,N/A,,Clear,200,2012-10-06 16:15:00
12:35 PM,-9999,-9999,N/A,29.70,9.0,South,12.7,21.9,N/A,,Clear,180,2012-10-06 16:35:00
12:55 PM,-9999,-9999,N/A,29.69,10.0,South,12.7,21.9,N/A,,Clear,180,2012-10-06 16:55:00
1:15 PM,-9999,-9999,N/A,29.69,10.0,South,10.4,16.1,N/A,,Scattered Clouds,190,2012-10-06 17:15:00
1:35 PM,-9999,-9999,N/A,29.68,10.0,SSW,10.4,19.6,N/A,,Scattered Clouds,200,2012-10-06 17:35:00
1:55 PM,71.6,57.2,60,29.67,10.0,SSE,12.7,18.4,N/A,,Scattered Clouds,160,2012-10-06 17:55:00
2:15 PM,73.4,59.0,61,29.67,10.0,South,10.4,17.3,N/A,,Mostly Cloudy,170,2012-10-06 18:15:00
2:35 PM,71.6,59.0,64,29.66,10.0,South,12.7,21.9,N/A,,Scattered Clouds,180,2012-10-06 18:35:00
2:55 PM,-9999,-9999,N/A,29.65,10.0,SSE,16.1,19.6,N/A,,Partly Cloudy,160,2012-10-06 18:55:00
3:15 PM,-9999,-9999,N/A,29.65,10.0,South,15.0,23.0,N/A,,Partly Cloudy,180,2012-10-06 19:15:00
3:35 PM,-9999,-9999,N/A,29.65,10.0,South,11.5,19.6,N/A,,Mostly Cloudy,170,2012-10-06 19:35:00
3:55 PM,69.8,59.0,68,29.65,10.0,South,10.4,-,N/A,,Mostly Cloudy,170,2012-10-06 19:55:00
4:15 PM,69.8,59.0,68,29.65,10.0,South,9.2,-,N/A,,Overcast,170,2012-10-06 20:15:00
4:35 PM,-9999,-9999,N/A,29.64,10.0,South,12.7,-,N/A,,Overcast,170,2012-10-06 20:35:00
4:55 PM,-9999,-9999,N/A,29.65,5.0,South,10.4,-,N/A,,Overcast,180,2012-10-06 20:55:00
5:15 PM,64.4,60.8,88,29.68,7.0,West,6.9,-,0.01,,Mostly Cloudy,260,2012-10-06 21:15:00
5:35 PM,-9999,-9999,N/A,29.69,10.0,NNW,15.0,24.2,0.01,,Overcast,330,2012-10-06 21:35:00
5:55 PM,-9999,-9999,N/A,29.70,10.0,NW,12.7,19.6,0.01,,Overcast,320,2012-10-06 21:55:00
6:15 PM,-9999,-9999,N/A,29.73,10.0,NW,11.5,16.1,N/A,,Overcast,310,2012-10-06 22:15:00
6:35 PM,-9999,-9999,N/A,29.74,10.0,NW,9.2,-,N/A,,Overcast,310,2012-10-06 22:35:00
6:55 PM,57.2,48.2,72,29.75,10.0,NNW,6.9,-,N/A,,Overcast,330,2012-10-06 22:55:00
7:15 PM,55.4,46.4,72,29.76,10.0,NNW,8.1,-,N/A,,Overcast,330,2012-10-06 23:15:00
7:35 PM,55.4,46.4,72,29.76,10.0,NNW,9.2,-,N/A,,Overcast,330,2012-10-06 23:35:00
7:55 PM,55.4,44.6,67,29.77,10.0,NNW,8.1,-,N/A,,Overcast,340,2012-10-06 23:55:00
8:15 PM,55.4,44.6,67,29.78,10.0,NW,8.1,-,N/A,,Overcast,320,2012-10-07 00:15:00
8:35 PM,55.4,42.8,63,29.79,10.0,NW,6.9,-,N/A,,Mostly Cloudy,310,2012-10-07 00:35:00
8:55 PM,53.6,42.8,67,29.80,10.0,NW,4.6,-,N/A,,Partly Cloudy,310,2012-10-07 00:55:00
9:35 PM,51.8,42.8,71,29.82,10.0,Calm,Calm,-,N/A,,Scattered Clouds,0,2012-10-07 01:35:00
9:55 PM,51.8,42.8,71,29.83,10.0,Calm,Calm,-,N/A,,Overcast,0,2012-10-07 01:55:00
10:15 PM,51.8,42.8,71,29.84,10.0,Calm,Calm,-,N/A,,Overcast,0,2012-10-07 02:15:00
10:35 PM,48.2,44.6,87,29.84,10.0,South,3.5,-,N/A,,Overcast,180,2012-10-07 02:35:00
10:55 PM,51.8,42.8,71,29.85,10.0,Calm,Calm,-,N/A,,Overcast,0,2012-10-07 02:55:00
11:15 PM,48.2,42.8,82,29.85,10.0,Calm,Calm,-,N/A,,Mostly Cloudy,0,2012-10-07 03:15:00
11:35 PM,48.2,42.8,82,29.86,10.0,Calm,Calm,-,N/A,,Partly Cloudy,0,2012-10-07 03:35:00
11:55 PM,46.4,41.0,81,29.87,10.0,Calm,Calm,-,N/A,,Clear,0,2012-10-07 03:55:00